パンスターズ彗星

448P/PanSTARRS (2008)

English version
Home page
Updated on October 9, 2022

---------------------------------------------------------------------

・ プロフィール

符号 448P/2008 T13

・ 軌道要素

Epoch 2008 Oct. 21.0 TT = JDT 2454760.5                                         
T 2008 Nov.  9.31431 TT                                 Rudenko                 
q   2.0958376            (2000.0)            P               Q                  
n   0.14294003     Peri.  218.75533     +0.93141882     -0.35799366             
a   3.6227091      Node   161.88741     +0.36368854     +0.90870467             
e   0.4214723      Incl.   12.17605     +0.01377061     +0.21470065             
P   6.90                                                                        
From 102 observations 2008 Oct. 1-2022 Aug. 24, mean residual 0".6.             

・ 光度変化

        m1 = 16.0 + 5 logΔ + 10.0 log r

---------------------------------------------------------------------

軌道要素はM.P.E.C. 2022-Q153に掲載されたものです。
光度グラフはComet for Windowsで作成したものです。

---------------------------------------------------------------------

Copyright(C) Seiichi Yoshida (comet@aerith.net). All rights reserved.